Location: Kailua
(21.4020°N, 157.7390°W)
Time: 05:59:44
(UTC-10:00)

Hubble Space Telescope - Visible Passes

Search period start: 25 January 2021 00:00
Search period end: 04 February 2021 00:00
Orbit: 536 x 539 km, 28.5° (Epoch: 24 January)

Date Brightness Start Highest point End Pass type
(mag) Time Alt. Az. Time Alt. Az. Time Alt. Az.
25 Jan 1.0 19:57:43 10° WNW 20:01:17 64° WNW 20:01:17 64° WNW visible
26 Jan 0.7 19:46:55 10° WNW 19:51:02 77° SSW 19:51:32 65° SE visible
27 Jan 1.2 19:36:08 10° WNW 19:40:13 58° SSW 19:41:53 32° SE visible
28 Jan 1.7 19:25:25 10° W 19:29:21 44° SSW 19:32:23 16° SE visible
29 Jan 2.3 19:14:45 10° W 19:18:30 33° SSW 19:22:13 10° SE visible
30 Jan 2.9 19:04:11 10° W 19:07:37 25° SSW 19:11:02 10° SSE visible
31 Jan 3.4 18:53:47 10° WSW 18:56:44 19° SSW 18:59:42 10° SSE visible
01 Feb 3.6 18:43:37 10° WSW 18:45:51 14° SSW 18:48:05 10° S visible
